This is the latest recevied weather packets stored in our database for station/object iw0uwf-4. If no packets are shown the sender has not sent any weather packets the latest 1 day(s).
| Time | Temp. | Humidity | Pressure | Rain* | Wind** | Luminosity | Snow |
|---|---|---|---|---|---|---|---|
| 1778034784 | 14.44° C | 84% | 1003.7 hPa | 0 mm | 2.68 m/s, 227° | 0 W/m² | - |
| 1778034724 | 14.44° C | 84% | 1003.8 hPa | 0 mm | 2.68 m/s, 230° | 0 W/m² | - |
| 1778034664 | 14.44° C | 84% | 1003.8 hPa | 0 mm | 2.68 m/s, 240° | 0 W/m² | - |
| 1778034604 | 14.44° C | 84% | 1003.7 hPa | 0 mm | 2.68 m/s, 237° | 0 W/m² | - |
| 1778034544 | 14.44° C | 83% | 1003.7 hPa | 0 mm | 2.68 m/s, 249° | 0 W/m² | - |
| 1778034485 | 14.44° C | 83% | 1003.7 hPa | 0 mm | 2.68 m/s, 261° | 0 W/m² | - |
| 1778034423 | 14.44° C | 83% | 1003.7 hPa | 0 mm | 2.68 m/s, 266° | 0 W/m² | - |
| 1778034364 | 14.44° C | 83% | 1003.7 hPa | 0 mm | 2.68 m/s, 272° | 0 W/m² | - |
| 1778034303 | 14.44° C | 83% | 1003.6 hPa | 0 mm | 2.68 m/s, 272° | 0 W/m² | - |
| 1778034243 | 14.44° C | 83% | 1003.7 hPa | 0 mm | 2.68 m/s, 271° | 0 W/m² | - |
| 1778034183 | 14.44° C | 83% | 1003.7 hPa | 0 mm | 2.24 m/s, 285° | 0 W/m² | - |
| 1778034123 | 14.44° C | 83% | 1003.9 hPa | 0 mm | 2.68 m/s, 271° | 0 W/m² | - |
| 1778034064 | 14.44° C | 82% | 1003.8 hPa | 0 mm | 3.13 m/s, 263° | 0 W/m² | - |
| 1778033824 | 14.44° C | 82% | 1003.8 hPa | 0 mm | 3.13 m/s, 249° | 0 W/m² | - |
| 1778033764 | 14.44° C | 82% | 1003.8 hPa | 0 mm | 3.13 m/s, 253° | 0 W/m² | - |
| 1778033703 | 13.89° C | 82% | 1003.8 hPa | 0 mm | 3.13 m/s, 261° | 0 W/m² | - |
| 1778033644 | 14.44° C | 82% | 1003.8 hPa | 0 mm | 3.13 m/s, 263° | 0 W/m² | - |
| 1778033583 | 14.44° C | 81% | 1003.8 hPa | 0 mm | 3.13 m/s, 266° | 0 W/m² | - |
| 1778033523 | 13.89° C | 81% | 1003.8 hPa | 0 mm | 2.68 m/s, 272° | 0 W/m² | - |
| 1778033463 | 13.89° C | 81% | 1003.8 hPa | 0 mm | 2.68 m/s, 273° | 0 W/m² | - |
| 1778033403 | 13.89° C | 81% | 1003.8 hPa | 0 mm | 2.68 m/s, 283° | 0 W/m² | - |
| 1778033343 | 13.89° C | 81% | 1003.9 hPa | 0 mm | 2.68 m/s, 287° | 0 W/m² | - |
| 1778033283 | 13.89° C | 81% | 1003.7 hPa | 0 mm | 2.68 m/s, 291° | 0 W/m² | - |
| 1778033223 | 13.89° C | 81% | 1003.7 hPa | 0 mm | 2.24 m/s, 302° | 0 W/m² | - |
| 1778033163 | 14.44° C | 80% | 1003.8 hPa | 0 mm | 2.24 m/s, 302° | 0 W/m² | - |
* Rain latest hour (hover to see other rain measurements)
** Current wind speed in m/s (hover to see current wind gust speed)